Showing default

QZS-6, 62876

Orbit data source: Space-Track

QZS-6, 62876 is a Japanese payload satellite in GEO that was launched on Sun, 02 Feb 2025 UTC via a H3-22S launch vehicle from the Tanegashima Space Center (TNSTA). Payload-class satellites include a variety of spacecraft equipped with specific instruments for various scientific and technological missions. These include communications satellites like Starlink; space stations such as the ISS; scientific satellites like the Hubble; Earth observation satellites from companies like Planet Labs, Umbra, and HawkEye 360; GPS; miniature CubeSats for education and research; and military/defense satellites.

Not visible in the next 10 days
Identifier
62876, 2025-023A
Orbit
GEO
Country
Flag of JPJP / JPN
Related business
Manufacturer
MELCO
Mission
Operational Civil Nav/Com
Bus & Motor
DS-2000, LAPS-500?
Mass
4,900 kg wet, ~2,000 kg dry
Launch date (UTC)
2025-02-02 (1 year ago)
Launch vehicle
H3-22S
Launch site
Tanegashima Space Center (TNSTA)
Object type
Payload
Rocket body
Debris
Shape & HBR
Box + 2 Pan, 22.5 m
Radar Cross Section
39.598 m²

Expand to show TLE details & history
Last TLE update: 12 hours ago

TLE from 12 hours ago
0 QZS-6
1 62876U 25023A   26129.48862082 -.00000225  00000-0  00000+0 0  9998
2 62876   0.0625  79.8249 0002750 337.0651  76.8374  1.00270667  4572
Epoch: 2026-05-09T11:43Z
TLE epoch observation values (Epoch: 2026-05-09T11:43:36.838Z)
Latitude
0.04034°
Longitude
90.54068°
Altitude
35,783.758 km
Speed
3.075 km/s
True Right ascension
08h 54m 59s
True Declination
0° 02' 25"
Sunlit
Object was in daylight at epoch
Visualization orbit readout
Latitude
Unknown
Longitude
Unknown
Altitude
Unknown
Speed
Unknown
Apparent Right ascension
Unknown
Apparent Declination
Unknown
Sunlit
N/A
Visualization observer readout
Local Sidereal Time
07:26:08
Azimuth
Unknown
Elevation
Unknown
Doppler factor
Unknown
Orbital elements
Apogee altitude
35,799.574 km
Perigee altitude
35,776.383 km
Semi-major axis
42,166.116 km
Eccentricity
0.00028
Inclination
0.0625°
RAAN
79.8249°
Arg. of periapsis
337.0651°
True anomaly
76.86809°
Mean anomaly
76.8374°
Eccentric anomaly
76.85274°
Mean motion
0.25067 °/min
Orbital period
1,436.17 mins
BSTAR
0
Loading maneuver chart data...
Computing Atmospheric mass density...
Loading historical data...
Loading historical data...
Loading historical data...
Loading historical data...
Loading historical data...
Loading historical data...
Loading historical data...
Other satellites on launch #23 in the year 2025 (2025-02-02 UTC)

Documentation

Showing up to 5 results
|